Location: Hauppauge
(40.8260°N, 73.2030°W)
Time: 16:35:44
(UTC-04:00)

Daily predictions for brighter satellites

Satellite Brightness Start Highest point End
(mag) Time Altitude Azimuth Time Altitude Azimuth Time Altitude Azimuth
Meteor 1-12 Rocket 4.5 20:32:59 10° N 20:39:00 69° ENE 20:44:58 10° SSE
Cosmos 2292 Rocket 4.5 20:34:18 10° NNW 20:39:07 75° W 20:45:36 10° S
Cosmos 1680 Rocket 4.5 20:37:52 10° SSE 20:42:12 27° E 20:46:31 10° NE
Cosmos 1812 3.9 20:44:20 10° SSW 20:48:04 47° W 20:51:51 10° N
Cosmos 1709 Rocket 4.2 20:46:20 10° N 20:52:37 80° W 20:58:48 10° S
Cosmos 1743 3.4 20:49:54 10° N 20:53:34 38° ENE 20:57:13 10° SSE
Cosmos 1346 4.2 20:52:30 10° SSE 20:54:45 22° E 20:57:01 10° NE
Iridium 4 Rocket 3.9 20:50:18 10° N 20:55:15 71° W 21:00:38 10° S
Envisat 3.0 20:51:06 10° SSE 20:56:11 86° ENE 21:01:18 10° NNW
Spot 1 4.2 20:54:28 10° SSE 20:59:04 86° ENE 21:03:26 10° NNW
ASTRO E2 4.2 20:57:38 10° SW 21:00:41 21° S 21:03:15 12° SE
ASTEX 1 4.1 20:57:19 10° SE 21:01:49 37° ENE 21:06:19 10° N
Aureole 3 Rocket 4.0 20:55:59 10° SSE 21:02:38 50° E 21:07:24 10° NNE
Tiangong 2 2.0 21:08:00 10° SSW 21:10:47 28° SSE 21:13:18 12° E
Aureole 1 Rocket 3.1 21:09:05 10° SSE 21:12:10 30° ESE 21:14:56 10° NE
Okean 1-7 Rocket 4.5 21:08:52 11° SSE 21:12:27 30° E 21:16:22 10° NNE
NOSS 2-2 (E) 3.5 21:09:20 10° SW 21:13:20 86° NW 21:17:59 10° NE
Cosmos 1238 Rocket 4.5 21:08:18 10° SSE 21:14:37 46° E 21:20:53 10° NNE
DNEPR-1 R/B 4.1 21:12:53 10° NNW 21:16:58 45° NE 21:20:18 16° ESE
SL-08 ROCKET BODY 4.5 21:12:38 10° N 21:18:50 88° E 21:25:03 10° S
Meteor 2-4 Rocket 3.9 21:14:34 10° S 21:19:59 53° E 21:25:35 10° NNE
USA 186 4.5 21:20:20 10° SW 21:22:39 18° W 21:24:56 10° NW
ISS -3.0 21:20:08 10° SSW 21:23:02 29° SE 21:25:57 10° ENE
Cosmos 1666 2.7 21:20:31 10° N 21:24:14 60° E 21:26:56 17° SSE
Meteor 2-13 Rocket 4.4 21:20:09 10° N 21:26:14 78° E 21:32:04 11° SSE
Cosmos 923 Rocket 4.1 21:22:11 10° SSW 21:27:31 87° WNW 21:32:52 10° NNE
OAO 2 Rocket 3.8 21:23:01 10° WSW 21:27:38 40° S 21:31:02 17° ESE
Cosmos 2184 Rocket 4.0 21:26:22 10° N 21:32:46 88° E 21:38:55 11° S
Cosmos 2074 Rocket 4.0 21:26:41 10° N 21:32:58 89° W 21:39:14 10° S
CZ-3A R/B 1.9 21:29:21 10° SSW 21:33:08 24° SSE 21:33:08 24° SSE
Cosmos 1437 4.4 21:31:57 10° SW 21:34:55 34° WNW 21:37:55 10° N
CZ-4B DEB 4.3 21:32:16 10° SSW 21:34:56 30° W 21:37:38 10° NW
USA 245 3.4 21:38:45 27° E 21:39:10 29° ENE 21:41:23 10° NNE
Cosmos 1606 Rocket 4.5 21:36:04 10° NNE 21:39:57 32° ENE 21:41:41 23° ESE
Intercosmos 24 4.0 21:37:35 10° N 21:41:31 48° ENE 21:43:05 28° SE
YAOGAN 11 4.2 21:40:58 23° SE 21:43:28 59° ENE 21:47:43 10° N
YAOGAN 6 3.5 21:42:06 13° S 21:45:02 43° W 21:48:24 10° NNW
Cosmos 1656 Rocket 4.0 21:40:09 10° NNW 21:45:30 59° WSW 21:49:49 16° S
ERS-1 Rocket 3.1 21:41:29 15° S 21:45:40 76° WSW 21:50:43 10° NNW
USA 267 4.5 21:43:07 10° E 21:46:46 18° ESE 21:46:46 18° ESE
MetOp-A 4.1 21:45:09 19° SSE 21:49:05 86° ENE 21:54:29 10° NNW
Meteor 1-23 Rocket 4.1 21:43:45 11° S 21:49:09 73° E 21:54:45 10° NNE
MOS 1-B Rocket 3.9 21:46:03 19° SSE 21:50:15 82° ENE 21:56:34 10° NNW
Cosmos 1726 Rocket 4.3 21:46:58 10° N 21:50:57 34° ENE 21:52:22 27° ESE
Cosmos 405 Rocket 4.1 21:48:27 10° SW 21:51:56 38° WNW 21:55:32 10° N
GENESIS II 4.1 21:49:27 10° NNW 21:53:26 83° ENE 21:55:01 34° SE
Cosmos 1515 4.4 21:53:03 31° ESE 21:53:41 33° E 21:57:07 10° NNE
H-2A R/B 2.5 21:52:51 26° SE 21:55:12 44° ENE 21:59:57 10° N
Cosmos 1980 Rocket 4.5 21:54:55 10° NNE 21:56:48 12° NE 21:58:40 10° ENE
Cosmos 2058 Rocket 4.1 21:53:26 10° NNE 21:57:21 30° ENE 21:58:34 26° ESE
Meteor 1-15 Rocket 4.2 21:52:37 10° N 21:58:14 72° E 22:01:25 26° SSE
Cosmos 2112 Rocket 4.3 21:55:10 10° SSW 22:00:22 68° WNW 22:05:34 10° NNE
Cosmos 192 4.4 21:56:07 10° SSW 22:01:01 80° WNW 22:05:57 10° NNE
Cosmos 1943 Rocket 4.4 21:57:24 10° WNW 22:01:08 18° W 22:04:49 10° SW
Cosmos 1025 Rocket 2.9 21:58:34 19° S 22:01:38 85° W 22:05:56 10° N
CENTAUR R/B 3.5 21:55:27 10° NW 22:03:14 57° WSW 22:09:18 19° S
Cosmos 1441 Rocket 3.9 22:01:17 12° SSW 22:04:38 52° WNW 22:08:19 10° N
Nadezhda 1 Rocket 4.4 22:01:29 10° SSW 22:07:46 66° W 22:14:08 10° N
Cosmos 1624 Rocket 4.1 22:03:25 10° NNW 22:08:40 63° ENE 22:10:57 33° SE
PSLV R/B 2.9 22:07:18 10° W 22:10:27 84° S 22:10:40 74° ESE
Cosmos 2154 Rocket 4.1 22:10:00 10° N 22:16:22 80° W 22:20:26 24° S
SL-08 RB Rocket 3.6 22:14:43 35° S 22:16:34 84° WSW 22:21:04 10° NNW
ARGOS 3.3 22:13:33 26° S 22:16:41 72° WSW 22:22:07 10° NNW
COSMOS 2406 4.5 22:11:42 10° SW 22:17:07 42° WNW 22:22:32 10° N
Nimbus 7 Rocket 4.4 22:11:47 10° NNE 22:17:52 83° ESE 22:22:26 19° SSW
SL-27 R/B 4.0 22:15:13 10° SW 22:18:38 37° WNW 22:22:05 10° N
SL-8 Rocket 4.3 22:14:30 10° N 22:20:35 50° ENE 22:23:03 33° SE
Landsat 7 3.9 22:21:41 41° SE 22:23:08 62° ENE 22:27:51 10° N
SPOT 5 3.1 22:23:04 31° SSW 22:24:54 54° W 22:29:10 10° NNW
H-2A R/B 2.7 22:24:49 38° ESE 22:25:46 44° ENE 22:30:05 10° N
Cosmos 2278 4.0 22:21:04 10° NNW 22:26:41 55° ENE 22:28:45 36° ESE
Cosmos 2056 Rocket 3.4 22:22:13 10° NNW 22:27:26 86° ENE 22:29:09 43° SSE
Cosmos 2082 Rocket 2.7 22:28:02 37° SE 22:28:49 39° ESE 22:34:02 10° NE
Cosmos 1626 Rocket 4.3 22:37:17 35° E 22:37:17 35° E 22:40:58 10° NNE
Iridium 82 4.4 22:33:49 10° N 22:37:23 86° E 22:37:24 86° ESE
Terra 1.9 22:37:12 49° SE 22:38:12 62° ENE 22:42:54 10° N
CZ-4B R/B 4.2 22:34:24 10° NNE 22:39:03 36° E 22:39:09 36° E
Cosmos 839 Rocket 4.3 22:34:55 10° NNW 22:41:31 84° ENE 22:44:54 37° SE
Cosmos 2341 Rocket 4.3 22:38:09 10° NNW 22:44:25 66° W 22:47:39 30° SSW
Cosmos 967 Rocket 4.4 22:38:39 10° SSW 22:44:55 87° WNW 22:51:14 10° NNE
Cosmos 2369 3.7 22:39:34 10° NNW 22:45:20 77° ENE 22:46:58 48° SE
SPOT 1/Viking Rocket 4.0 22:44:17 33° SSW 22:46:19 53° W 22:51:23 10° NNW
COSMOS 2487 2.9 22:47:21 56° NE 22:47:21 56° NE 22:50:16 10° NNE
Tiangong 2 3.0 22:44:11 10° W 22:45:36 24° W 22:45:36 24° W
Cosmos 1437 Rocket 4.0 22:45:08 10° NNW 22:48:36 34° W 22:49:25 30° WSW
Cosmos 1959 Rocket 4.5 22:45:06 10° N 22:51:29 74° E 22:53:30 45° SSE
SL-08 R/B 4.5 22:45:26 10° N 22:51:31 64° E 22:53:11 46° SE
Cosmos 1697 Rocket 3.2 22:49:37 10° NNW 22:55:02 47° ENE 22:56:25 39° E
IGS 5A 3.3 22:56:43 84° S 22:56:52 88° W 23:01:02 10° NNW
ISS -2.1 22:56:26 10° W 22:59:29 34° NNW 23:02:32 10° NE
Cosmos 1452 Rocket 3.5 22:54:26 10° NNW 22:59:42 69° ENE 23:00:34 58° ESE
Cosmos 2218 Rocket 3.9 22:54:39 10° N 23:00:50 86° E 23:02:38 50° S
Cosmos 1271 Rocket 4.2 23:02:52 10° NNE 23:05:37 29° NE 23:05:37 29° NE
Cosmos 2228 3.4 23:02:19 10° NNW 23:06:31 52° W 23:06:54 50° WSW
Cosmos 1602 Rocket 3.5 23:10:37 80° NE 23:10:37 80° NE 23:14:47 10° N
deb Chang Zheng 4 3.6 23:06:49 10° N 23:11:08 71° WNW 23:11:27 68° WSW
Cosmos 921 Rocket 3.7 23:08:19 10° NNW 23:12:35 44° W 23:12:53 43° WSW
Cosmos 1833 Rocket 2.5 23:11:23 56° SSW 23:12:37 84° ESE 23:18:16 10° NNE
Cosmos 1656 3.5 23:10:04 10° NNW 23:15:32 85° WSW 23:16:17 68° S
Cosmos 1066 Rocket 4.4 23:15:05 42° SW 23:16:49 64° WNW 23:22:23 10° N
Lacrosse 5 rocket 4.5 23:17:17 10° NNW 23:19:20 13° NNE 23:21:24 10° NE
Meteor 1-21 4.1 23:19:44 63° SE 23:20:17 67° E 23:25:58 10° NNE
SL-19 R/B 4.4 23:15:53 10° N 23:21:12 63° WNW 23:22:49 42° SW
Cosmos 468 4.3 23:24:10 76° S 23:24:36 87° ESE 23:29:56 10° NNE
CZ-4 R/B 4.1 23:20:40 10° N 23:25:40 69° WNW 23:26:31 57° SW
Cosmos 1766 3.9 23:22:06 10° N 23:25:11 53° N 23:25:11 53° N
Nadezhda 3 Rocket 4.0 23:29:12 57° SE 23:30:08 64° E 23:36:25 10° NNE
USA 267 3.1 23:24:32 10° NE 23:31:06 78° SE 23:34:02 36° SW
Meteor 1-4 Rocket 4.0 23:27:48 10° NNW 23:30:20 33° WNW 23:30:20 33° WNW
Meteor 2-14 Rocket 4.4 23:28:00 10° N 23:34:04 77° W 23:35:08 61° SSW
H-2A R/B 3.8 23:33:29 18° WSW 23:34:51 20° W 23:38:28 10° NW
Cosmos 1980 Rocket 2.2 23:36:17 10° NNW 23:41:56 67° ENE 23:42:26 63° E
SME Rocket 3.7 23:46:35 67° E 23:46:53 69° ENE 23:51:19 10° N
SeaSat 1 2.9 23:46:39 48° ENE 23:46:57 49° ENE 23:51:43 10° NNW
Cosmos 1821 Rocket 4.1 23:43:19 10° N 23:49:32 60° E 23:50:18 56° ESE
Cosmos 2322 Rocket 3.5 23:45:16 10° N 23:50:14 30° NE 23:51:42 26° E
